RH
23 25 29 34 38 41 45 52 60 65 69 72 72 72 71 69 67 65 62 60 56 51 42 32 22 14 10 8 7 7 8 8 9 9 9 10 11 11 12 12 13 14 15 16 16 17 18 18 19 19 20 21 23 25 27 28 30 33 35 37 38 39 37 36 35 33 29 24 20 18 17 15 13 13 12 10 9 8 7 6 6 5 5 6 5 6 6 6
16 17 19 20 22 23 26 34 43 52 63 71 73 72 69 64 58 53 48 42 34 25 15 9 6 5 5 5 5 5 6 6 6 6 7 7 8 9 9 9 10 12 14 16 18 19 20 21 20 20 20 20 20 21 22 22 23 26 28 30 33 34 33 33 32 30 28 24 21 18 17 16 15 15 14 11 10 9 8 6 6 5 5 5 5 6 6 6
15 15 15 17 19 19 20 23 29 41 59 70 70 63 53 42 33 27 21 16 11 7 5 5 5 5 6 7 7 8 8 8 8 8 8 8 8 8 7 8 8 8 10 13 15 18 19 20 20 21 22 23 24 24 25 26 26 28 30 32 34 34 32 32 31 29 27 25 22 20 19 19 19 18 16 14 13 11 9 7 6 6 6 6 6 6 6 6
20 22 23 25 25 25 26 27 33 46 58 58 47 34 22 15 10 8 6 5 5 5 6 7 8 10 11 12 12 12 13 13 12 12 11 11 11 10 10 10 9 9 9 9 11 14 16 17 18 19 21 24 25 26 28 29 29 30 32 35 35 35 34 32 31 30 28 26 23 22 22 22 22 20 18 16 14 12 10 9 8 7 6 6 6 6 6 7
28 31 32 31 31 30 31 32 35 37 34 25 16 9 6 5 5 5 6 7 9 10 12 14 15 16 16 17 17 17 17 15 15 15 14 14 13 13 14 14 14 14 13 13 13 15 17 17 19 20 22 25 27 28 31 32 31 32 36 38 38 38 39 37 36 36 34 32 30 27 27 27 26 24 21 18 15 13 11 9 8 7 7 7 7 7 7 7
20 20 20 18 17 17 16 16 15 12 9 6 5 5 6 7 9 11 13 15 17 18 19 19 20 20 21 21 21 21 19 17 17 16 15 13 12 12 12 12 13 13 14 15 15 16 18 19 20 21 23 25 27 29 31 32 32 35 41 44 43 43 44 44 43 42 41 40 38 36 36 35 32 29 25 20 16 15 12 9 8 8 8 8 8 8 7 8
10 9 9 8 8 7 7 6 5 5 5 6 8 10 13 16 19 21 22 23 23 23 24 23 24 24 23 23 24 23 22 20 18 16 14 12 11 10 10 10 10 11 12 13 14 15 17 18 19 21 23 25 27 30 32 33 34 38 46 48 48 50 51 53 53 52 51 49 46 45 44 42 39 36 31 26 22 18 13 9 8 8 9 9 9 9 9 9
8 8 7 7 6 6 6 6 8 9 12 15 19 22 24 26 26 27 27 27 27 26 26 25 26 25 25 25 25 24 23 22 19 17 15 13 12 12 12 13 13 14 15 16 17 18 20 22 23 24 28 32 33 36 37 36 37 41 45 46 46 48 49 50 49 48 47 45 42 41 38 35 33 30 27 25 23 19 13 10 9 9 9 10 10 11 11 11
7 7 7 8 9 10 13 16 19 23 25 28 30 30 31 31 31 32 31 31 30 30 29 29 28 28 28 27 26 26 24 23 20 18 16 14 14 14 15 15 16 16 17 19 20 21 24 27 29 30 34 39 41 43 44 42 42 45 46 47 47 46 45 44 42 38 35 34 32 28 24 21 19 17 16 16 15 13 12 10 10 10 10 11 12 13 14 14
9 11 13 16 19 23 26 29 31 33 33 34 34 34 34 34 34 34 34 34 33 33 32 32 31 31 30 30 29 26 24 23 21 19 16 15 14 14 15 15 16 18 19 21 23 25 28 31 34 36 40 46 48 48 48 46 47 48 48 49 48 46 45 42 38 34 30 29 27 23 19 17 15 13 12 11 10 10 10 11 11 12 13 14 15 16 17 17
16 19 22 25 28 30 32 33 34 34 34 33 33 32 32 33 34 34 35 35 35 35 34 34 33 33 32 31 29 26 24 23 20 18 16 15 15 16 17 18 19 21 23 25 27 30 33 37 40 43 48 53 56 56 55 54 53 52 51 51 50 48 46 44 42 38 35 34 31 26 22 22 22 18 16 13 12 11 11 12 13 13 14 15 16 17 18 18
24 27 30 32 33 34 35 34 33 32 31 30 29 29 30 31 32 34 35 35 35 35 34 33 33 33 32 30 27 25 23 20 18 17 16 16 17 18 19 20 22 24 26 27 30 33 37 43 47 51 54 55 56 57 56 56 57 58 59 59 59 59 58 56 52 47 42 38 33 27 25 27 26 23 20 20 19 18 16 15 16 16 17 18 19 19 20 21
31 33 35 36 36 35 34 33 31 29 28 28 28 28 29 30 31 33 33 33 33 32 32 32 32 32 30 28 25 23 21 18 17 17 17 17 18 19 21 22 24 27 29 30 33 35 39 45 50 55 56 53 50 48 46 45 46 46 46 48 50 49 50 49 44 39 34 28 24 20 20 22 22 20 20 20 20 19 19 18 18 19 19 20 21 21 22 23
37 36 36 36 34 33 31 30 29 28 27 27 27 28 28 30 31 32 33 33 32 31 31 31 31 31 28 26 23 21 19 18 18 18 18 19 19 21 23 24 25 28 30 32 34 36 40 45 48 53 53 48 44 41 39 38 37 36 34 35 34 31 31 31 28 27 25 22 21 19 19 20 19 18 18 18 19 18 18 18 18 19 20 21 21 22 22 23
37 35 34 33 31 31 29 29 28 28 27 27 27 28 28 29 31 32 33 34 33 32 32 32 32 30 26 24 21 20 20 19 19 19 19 20 21 22 25 26 26 27 28 27 28 30 34 38 41 45 45 42 39 37 36 35 35 34 33 33 31 29 27 26 25 23 22 22 22 21 21 22 21 20 20 21 22 22 22 21 21 21 22 22 23 23 23 23
34 33 32 31 30 30 29 29 29 28 29 28 28 29 29 30 31 32 34 35 34 33 33 33 31 28 24 22 21 19 19 19 19 19 20 21 22 24 26 27 26 26 25 23 22 22 23 26 28 30 32 31 30 29 28 27 27 27 27 27 27 27 26 26 26 25 24 23 22 21 21 21 20 19 19 19 19 19 20 21 22 23 24 25 25 25 25 26
32 31 31 31 31 31 31 31 31 32 32 31 31 31 31 31 31 33 35 35 35 35 35 33 30 26 23 22 20 19 18 17 18 18 20 23 25 26 27 27 27 26 25 24 24 23 22 20 19 20 21 21 21 21 21 20 20 20 20 20 21 21 22 22 22 22 22 21 21 20 20 20 19 18 17 16 16 16 17 17 18 20 22 23 24 25 25 26
34 34 34 34 34 35 35 36 36 37 36 35 36 35 34 33 34 35 36 36 37 37 36 33 29 25 22 21 19 18 17 17 17 19 21 24 25 24 24 24 24 23 23 25 26 26 24 22 21 21 20 20 20 19 18 17 15 14 14 14 15 16 18 18 19 20 21 21 21 20 20 20 19 18 17 16 16 16 16 16 16 17 18 19 20 22 23 24
40 41 41 41 41 41 41 41 42 42 40 39 39 38 38 37 36 37 37 38 38 38 35 31 26 22 20 20 19 18 19 19 20 22 23 24 23 22 21 20 18 17 18 19 20 21 21 21 21 21 20 19 17 16 14 12 10 10 10 10 11 12 13 15 15 17 19 20 20 20 20 20 19 19 19 18 18 18 18 18 18 18 19 20 21 23 24 26
48 48 48 47 47 46 45 45 45 44 42 41 41 40 41 41 41 40 40 39 39 36 32 27 23 21 20 21 22 23 25 27 28 29 29 27 26 24 23 21 19 17 16 16 15 15 15 15 15 15 15 14 13 12 10 10 9 9 10 10 12 13 13 14 15 16 17 18 19 19 20 21 21 21 21 21 20 20 21 21 21 22 23 25 26 28 29 31
52 52 51 50 49 48 47 46 45 45 44 42 41 42 43 44 44 44 42 39 36 31 27 24 22 22 23 25 28 29 32 35 35 36 34 32 30 27 25 22 20 18 16 15 14 12 12 11 11 11 11 11 10 10 10 10 10 10 11 12 13 14 15 15 16 16 17 18 18 18 19 21 22 22 22 22 23 23 23 24 25 25 26 27 28 28 29 29
54 52 51 50 49 48 47 45 44 44 43 43 43 46 48 48 47 44 40 33 28 25 24 24 24 26 28 29 32 33 34 35 34 32 30 28 26 24 23 21 20 19 18 17 16 15 14 12 12 11 11 11 10 10 11 11 11 12 13 14 15 15 16 16 16 17 19 19 18 18 20 21 21 21 22 22 22 23 23 23 23 23 23 23 24 24 25 26
53 52 51 50 49 48 46 44 43 42 42 44 47 50 50 47 43 38 31 25 24 25 26 28 29 31 32 32 34 33 33 33 31 29 28 27 27 26 26 25 24 24 23 22 20 18 16 14 13 12 12 11 11 12 12 12 12 13 13 13 14 14 14 14 14 15 16 16 16 16 17 17 17 17 17 18 18 18 18 18 19 19 20 21 23 25 27 29
53 53 51 51 49 47 45 44 42 42 43 46 47 47 43 39 32 26 23 21 24 27 29 31 32 34 35 35 35 34 33 33 32 31 30 29 29 28 27 25 24 22 20 18 16 15 13 12 12 11 11 11 12 12 12 12 12 12 12 12 11 12 12 12 12 12 12 13 12 13 14 13 13 14 14 15 16 17 19 20 22 23 24 26 28 30 31 32
53 53 52 50 47 45 45 44 44 44 46 45 43 39 34 29 23 19 19 22 28 32 31 33 35 35 35 33 31 30 29 29 28 27 26 25 24 22 20 18 17 15 14 13 12 12 11 12 12 12 12 12 13 13 13 13 13 13 13 13 13 13 13 13 13 14 14 14 14 16 17 15 15 17 19 20 21 23 24 25 27 29 30 32 33 34 35 36
53 53 51 48 46 45 45 46 47 46 45 41 36 32 26 22 18 16 20 28 34 33 31 32 32 30 27 25 23 22 22 21 20 19 18 16 15 14 13 12 12 11 12 12 12 12 13 13 13 14 14 14 14 15 15 15 16 17 17 17 18 18 19 19 20 21 21 20 21 21 23 22 21 22 24 25 26 27 29 31 33 35 36 38 40 41 42 44
53 52 49 48 48 47 48 49 48 45 40 34 29 24 20 17 16 16 24 33 34 29 27 27 25 21 18 16 15 15 14 13 13 13 12 11 11 11 11 11 12 12 12 12 13 14 14 15 15 16 16 17 18 19 20 20 21 22 23 23 24 24 25 25 26 27 27 27 26 25 28 31 28 26 28 30 32 32 34 38 40 42 44 47 50 52 54 56
52 49 48 49 50 50 50 49 43 36 30 25 21 19 17 17 18 20 28 32 28 23 22 19 15 13 11 11 10 10 10 10 10 10 10 11 11 11 12 12 12 12 12 13 15 16 17 19 20 20 21 22 22 22 22 22 23 25 26 28 30 31 31 32 32 32 33 33 31 31 35 38 34 31 33 35 37 40 43 47 50 53 56 58 58 58 58 57
49 48 49 51 52 50 46 39 31 26 22 20 18 17 19 21 23 26 29 26 22 18 15 11 10 9 9 9 10 10 10 10 10 10 10 11 12 11 12 13 13 15 16 17 20 22 22 23 23 21 21 20 19 19 18 18 19 20 22 25 28 30 32 34 35 36 38 36 35 38 42 45 42 35 37 42 44 49 53 54 55 54 53 52 50 51 51 52
49 49 51 50 47 40 32 26 21 20 19 18 19 23 26 27 25 24 21 17 14 12 10 9 9 9 9 9 10 10 10 10 9 10 10 10 12 13 15 17 18 21 23 24 24 24 22 20 18 17 16 17 17 17 17 17 17 17 19 21 22 25 28 29 31 35 37 34 35 42 44 47 46 35 36 43 43 44 46 44 45 45 46 49 54 61 68 74
50 49 47 41 33 26 21 19 19 18 20 22 25 30 30 26 22 17 13 11 10 9 9 10 9 9 10 9 10 10 9 10 11 12 14 16 17 20 22 25 26 27 26 24 22 19 17 16 16 16 17 18 17 17 16 16 16 17 18 19 19 21 22 22 24 28 30 28 30 34 35 39 38 29 30 36 37 39 44 47 53 59 66 75 83 89 94 97
47 43 36 28 21 18 17 17 19 20 23 26 28 29 26 21 17 13 10 9 9 9 9 10 9 10 10 9 10 11 12 14 16 18 20 23 25 26 27 26 24 21 17 15 15 15 16 17 17 17 17 16 16 16 16 16 17 17 18 20 21 22 22 22 24 25 27 28 29 32 35 36 36 36 40 46 51 59 66 73 80 86 92 97 99 101 101 101
38 30 23 18 16 16 17 18 21 23 25 26 25 23 19 15 13 10 9 9 9 9 9 9 9 9 10 11 13 15 17 19 21 24 25 26 26 23 19 16 13 11 10 10 12 15 17 17 17 17 17 17 18 19 21 22 23 24 26 28 30 32 32 30 32 34 37 40 40 44 50 53 57 65 73 77 80 86 91 95 97 99 100 100 100 100 99 100
25 19 15 15 16 18 20 22 23 23 21 20 18 15 13 11 10 9 9 9 9 9 9 10 11 12 13 16 19 21 23 25 26 26 25 21 18 14 11 10 9 10 11 12 13 14 17 18 19 20 20 21 23 24 27 28 30 33 36 39 43 48 51 49 51 55 59 63 64 69 78 83 88 95 98 98 98 98 99 100 100 100 100 100 101 101 101 100
15 14 16 19 20 21 21 20 19 17 15 13 11 10 9 9 9 9 10 10 10 11 12 13 15 17 19 21 24 26 26 25 23 19 15 12 11 10 11 12 13 14 14 15 16 17 21 25 26 27 28 31 36 40 43 47 51 56 60 65 72 80 84 85 86 88 90 91 91 94 99 99 100 101 100 100 100 100 101 101 100 100 99 97 94 91 88 85
16 19 21 21 20 17 15 14 12 10 9 8 8 8 8 9 9 9 10 11 13 14 17 20 22 24 26 25 25 23 19 16 14 12 11 12 12 13 14 15 17 19 20 22 25 27 34 44 48 46 50 56 61 65 69 74 81 84 88 94 99 101 102 101 100 100 100 100 100 100 101 100 101 101 100 100 100 97 95 91 88 83 78 73 70 67 66 65
20 20 18 15 12 10 9 8 7 7 7 7 7 8 8 9 10 11 13 15 17 20 22 24 25 24 23 20 17 15 13 12 12 13 14 15 17 20 23 27 32 37 42 45 48 50 55 67 72 68 72 78 80 82 84 87 92 95 98 102 103 102 102 102 102 101 101 101 99 99 100 98 95 92 88 84 80 75 71 69 67 65 65 65 67 69 72 75
14 11 9 7 6 6 5 5 6 6 7 8 9 10 11 13 14 15 16 17 18 18 17 17 17 15 14 13 13 12 13 14 16 20 25 29 35 41 46 51 55 59 62 63 65 66 66 74 81 79 79 85 87 88 90 92 94 96 98 98 97 96 94 94 93 90 87 86 83 82 81 77 73 71 69 68 67 68 70 72 75 77 79 82 83 83 82 81
6 5 5 5 5 6 6 7 8 9 10 12 12 13 13 14 13 13 12 11 11 11 11 11 11 12 12 14 15 18 22 27 33 40 47 51 55 59 62 64 64 65 67 68 69 71 71 73 79 80 79 82 83 84 86 87 86 86 86 84 83 83 80 78 76 73 72 72 72 72 71 70 72 75 77 79 81 84 85 86 86 84 83 80 77 74 72 70
5 5 6 7 8 9 9 10 11 11 11 11 10 10 9 9 8 8 7 7 8 9 10 12 14 17 21 25 30 36 41 47 53 57 59 60 62 64 65 66 67 67 68 68 68 70 72 72 75 78 79 79 80 80 81 81 81 81 81 80 79 79 80 80 80 81 83 85 87 87 84 83 85 87 87 86 84 82 80 77 74 71 69 66 65 65 65 66
7 7 8 8 8 8 8 8 7 7 6 6 6 5 5 5 6 7 8 10 13 16 19 24 29 34 39 44 48 51 54 55 57 58 60 61 62 63 64 65 67 68 70 72 74 75 76 75 74 74 73 71 70 71 70 69 69 68 67 68 70 74 80 82 82 85 88 88 88 86 82 79 77 76 74 71 69 67 65 64 64 64 65 65 67 69 70 72
7 7 7 7 6 6 5 5 5 4 5 5 5 6 8 10 13 15 19 22 25 30 34 37 41 43 46 48 49 51 53 54 55 58 60 62 64 66 68 71 72 72 71 69 65 59 54 49 45 40 37 35 34 34 33 31 32 33 35 41 48 55 63 68 70 71 72 71 69 67 66 63 62 62 62 62 63 64 66 68 69 71 72 73 75 76 76 75
9 9 9 9 9 9 9 9 9 9 10 11 13 15 17 20 22 24 27 30 32 34 35 37 38 40 42 44 46 49 52 53 56 60 62 64 64 63 63 60 54 48 41 33 25 20 17 15 13 12 11 11 12 13 15 16 18 20 24 29 33 37 43 51 57 58 57 58 59 60 62 62 62 64 66 69 71 72 74 75 75 75 75 75 75 74 72 71
12 13 13 14 14 15 15 15 16 17 18 18 19 20 21 23 24 25 26 27 28 27 27 28 29 30 32 34 37 40 40 42 47 47 44 43 39 34 30 25 18 14 11 9 8 8 8 8 8 9 9 9 10 12 15 19 23 27 30 32 34 36 40 46 51 52 54 59 63 67 70 71 71 72 72 74 75 75 74 74 73 73 72 72 72 71 70 71
12 13 14 15 15 16 16 16 17 18 17 17 18 18 19 20 20 19 18 17 15 14 13 14 14 13 14 15 17 18 18 19 22 19 15 14 13 10 9 7 6 7 7 8 9 9 9 10 10 11 11 12 13 13 15 18 23 28 32 36 39 42 45 48 50 53 59 64 68 73 76 73 71 71 71 71 72 72 72 71 71 71 71 73 74 73 73 72
11 12 12 13 13 13 14 14 14 14 13 14 15 14 13 13 10 8 7 5 5 4 4 4 4 3 4 4 4 5 5 5 6 6 5 6 6 6 7 7 8 9 9 10 10 11 11 12 12 13 14 15 15 16 17 19 22 24 28 33 38 43 46 50 53 57 61 63 65 68 68 66 66 67 67 67 68 69 70 71 72 74 75 76 76 74 73 70
11 11 11 12 12 11 11 11 10 10 9 8 8 6 5 4 3 3 3 2 2 2 2 2 2 2 3 3 3 3 4 4 4 5 6 6 7 7 8 8 9 10 10 11 11 12 13 13 14 15 16 16 17 18 19 20 21 24 27 32 36 40 43 47 52 56 59 59 60 60 60 62 64 64 64 65 66 68 70 73 74 75 76 75 73 71 69 68
11 11 10 10 10 9 8 7 6 5 4 3 3 3 2 2 2 2 2 2 2 2 2 2 3 3 3 3 4 4 5 6 6 6 7 7 8 8 9 9 10 11 11 12 13 14 14 15 15 16 17 18 18 18 20 20 21 24 28 32 35 38 41 45 49 52 55 57 58 57 58 61 62 61 62 63 65 67 70 73 73 73 73 72 72 71 71 71
9 9 8 7 7 5 4 4 3 3 2 2 2 2 2 2 2 2 2 2 2 2 3 3 3 3 4 4 5 5 6 6 6 7 7 8 8 9 10 10 11 12 13 13 14 15 15 16 17 17 18 19 19 20 20 21 22 25 27 30 33 36 40 42 44 46 50 55 55 52 52 54 56 57 58 60 63 67 71 72 73 73 73 74 74 73 70 66
7 7 6 5 4 4 3 3 3 2 3 3 2 3 3 2 2 3 2 3 3 3 3 3 3 4 4 4 5 6 6 6 7 8 8 9 10 10 11 12 12 13 14 14 15 16 17 18 18 19 20 20 20 21 21 22 24 25 26 28 31 34 38 40 42 44 44 44 43 43 44 46 47 48 52 57 62 66 69 71 72 73 72 70 66 60 52 47
6 5 5 4 3 3 3 3 3 3 3 3 3 3 3 3 3 3 3 3 3 3 3 3 4 4 4 5 5 6 7 7 8 9 9 10 11 11 12 13 14 14 15 16 17 17 18 19 20 21 22 22 23 23 23 24 25 25 27 29 30 33 36 38 40 41 38 33 32 35 36 37 37 39 44 51 56 60 65 67 67 66 62 55 48 42 38 38
6 5 4 4 4 3 3 3 3 3 3 3 3 3 3 4 3 3 4 3 3 4 4 4 4 5 5 6 6 7 8 8 9 10 10 11 12 12 12 13 14 15 15 17 18 19 20 21 22 23 24 25 26 26 26 26 25 25 27 29 30 31 33 34 35 36 33 30 30 31 30 30 32 34 39 45 51 59 65 66 61 56 50 43 40 39 40 43
Wind_Speed
17 17 18 19 19 19 18 16 15 15 15 14 14 14 14 15 15 16 16 16 17 17 16 16 16 16 16 16 16 16 16 17 18 18 19 19 21 21 22 23 24 25 26 26 27 28 29 30 31 32 33 34 35 36 37 38 38 38 38 38 36 35 36 37 38 38 38 38 37 36 36 37 37 38 37 38 39 40 41 42 42 43 43 43 43 43 44 43
15 15 16 16 16 17 16 16 15 15 15 14 14 14 14 15 16 16 16 16 16 15 14 14 14 14 14 14 14 14 15 16 17 17 18 19 20 21 22 23 23 24 25 25 26 26 27 28 30 30 31 32 33 34 35 35 36 36 37 37 35 36 37 38 38 38 38 38 37 37 36 37 37 37 38 38 39 40 41 41 42 42 43 43 43 44 44 44
13 13 13 13 14 14 14 14 14 14 14 14 14 15 15 15 14 14 13 13 12 12 12 12 12 12 12 12 13 13 14 15 17 18 19 20 21 22 23 24 25 25 26 26 27 27 28 29 30 30 31 31 32 32 33 34 35 35 35 34 34 35 36 36 37 38 38 37 37 37 37 37 37 37 38 38 39 39 40 41 41 42 42 43 44 44 45 45
11 11 11 10 11 11 11 11 12 13 13 14 14 14 13 13 12 11 10 10 10 10 10 10 10 11 11 12 13 14 15 16 18 20 21 22 23 24 25 26 27 27 28 29 29 29 30 30 31 31 31 32 32 33 33 34 35 35 34 34 34 34 35 35 36 37 37 37 37 37 38 38 38 38 39 39 40 40 40 41 41 42 42 43 44 45 45 45
8 8 7 7 7 7 8 9 10 10 11 12 12 12 11 10 9 8 8 8 8 8 8 9 10 11 12 13 14 16 17 18 19 21 22 23 25 26 27 27 28 29 30 30 31 31 31 31 32 32 33 33 33 34 34 34 35 35 34 34 34 35 35 35 36 37 37 37 38 38 39 39 39 39 39 39 40 40 41 41 41 41 42 43 44 45 45 45
5 6 6 6 6 6 6 7 8 9 9 9 9 9 8 7 6 6 7 8 9 10 11 12 12 13 14 15 16 17 18 19 20 21 22 24 25 26 27 27 28 29 30 31 31 31 31 32 33 33 33 34 34 34 34 35 36 35 34 34 35 36 36 36 36 37 38 38 39 39 40 40 40 40 40 40 40 41 41 41 42 42 42 42 43 45 45 45
5 5 5 5 5 5 5 6 6 6 6 5 5 5 5 6 7 8 9 11 12 13 14 15 16 17 17 18 19 19 21 21 22 23 23 24 24 24 25 25 26 27 28 28 29 30 30 30 31 31 32 32 32 33 33 33 34 34 33 33 35 36 36 37 37 38 39 39 40 41 41 41 41 41 41 41 41 41 41 42 42 42 42 42 43 43 44 45
4 4 3 3 3 2 2 2 2 2 2 2 3 5 6 8 9 10 11 13 14 15 16 17 18 19 20 21 21 21 22 23 23 24 24 24 24 24 24 24 25 25 25 26 26 27 27 28 28 29 29 29 30 30 30 31 32 32 32 32 33 34 35 36 37 38 39 39 40 41 42 42 42 42 42 43 42 42 42 42 42 41 41 42 42 43 43 44
3 3 3 3 3 3 3 3 2 2 2 3 5 6 8 9 11 12 13 14 16 17 18 19 19 20 21 22 22 22 23 23 24 25 25 25 25 25 25 24 25 25 25 25 25 26 27 27 28 28 28 28 29 29 30 31 32 31 32 32 33 34 35 36 37 38 38 39 39 40 41 41 42 42 42 42 42 42 42 42 42 41 41 41 42 42 43 44
4 4 4 5 4 4 4 3 3 3 4 5 7 8 9 10 12 13 14 15 16 18 19 20 20 21 21 22 22 23 23 23 24 25 25 25 25 24 25 25 25 25 25 26 26 27 27 28 28 29 29 29 29 30 30 32 32 32 33 33 34 35 35 36 37 37 38 38 39 39 40 41 41 41 42 41 41 41 41 41 41 41 41 41 42 42 43 44
5 5 5 4 4 3 3 4 4 6 7 8 9 10 11 12 13 14 15 16 18 19 20 20 21 22 22 22 23 24 24 24 24 24 24 24 24 24 24 25 25 25 26 26 27 27 27 27 28 29 29 29 29 30 31 32 32 33 34 34 35 35 36 36 37 37 38 39 39 39 40 41 41 41 41 41 41 41 41 41 41 42 42 42 42 42 43 43
4 4 4 3 4 4 5 6 8 9 10 11 12 13 13 14 15 16 17 18 19 20 21 21 21 22 22 23 23 24 24 25 24 24 24 23 23 24 24 25 26 26 26 26 26 26 27 27 27 28 28 28 29 29 30 31 32 33 34 35 35 36 36 36 37 38 39 39 39 40 41 42 41 42 42 42 42 42 43 43 43 43 43 43 43 43 43 44
4 4 5 5 6 7 8 10 11 12 12 13 14 14 15 16 17 18 19 20 21 21 21 22 22 22 23 24 24 24 24 24 24 24 24 24 24 24 24 24 25 25 26 26 25 26 26 26 27 27 27 27 28 28 29 30 31 32 32 33 34 36 36 36 37 38 38 39 39 40 42 41 41 42 42 43 43 43 44 44 44 44 44 44 44 44 44 44
5 5 6 8 9 10 11 12 13 14 15 15 16 16 17 18 18 19 20 21 22 22 22 22 23 24 24 25 25 25 24 24 24 25 25 25 25 24 24 24 24 23 24 24 25 25 25 26 26 27 27 27 28 29 29 30 31 32 32 33 34 36 37 36 37 38 38 39 39 41 42 41 41 42 43 43 43 44 44 44 44 45 45 45 45 45 45 46
6 7 8 9 10 12 13 14 15 16 17 17 18 18 19 19 20 21 22 23 23 23 23 23 24 25 26 26 25 25 25 25 25 25 25 25 25 24 23 23 24 23 23 24 24 25 25 26 26 26 27 28 28 29 30 31 32 32 33 34 35 37 38 38 38 39 40 40 41 42 43 43 42 43 44 44 44 45 45 45 45 45 46 46 46 47 47 47
8 9 10 11 12 13 14 15 16 17 18 19 19 20 20 21 21 22 23 23 24 23 24 25 26 26 26 26 26 26 26 25 25 25 26 25 25 24 23 23 24 24 24 24 25 25 26 26 27 27 28 29 30 31 31 32 32 33 35 36 36 38 39 39 40 40 41 42 42 43 44 44 44 45 45 45 46 46 46 47 47 47 47 47 48 48 49 49
10 11 11 12 13 14 15 16 17 18 18 19 20 21 22 22 22 23 24 25 25 25 25 26 27 27 27 27 27 26 26 26 25 25 25 24 24 24 24 24 25 25 26 26 26 27 27 28 29 29 29 31 31 32 32 33 34 35 36 37 38 39 40 41 41 42 42 43 44 45 45 46 46 46 47 47 47 47 47 48 48 48 49 49 49 50 50 51
11 12 13 14 15 15 16 17 18 19 19 20 21 22 23 23 24 24 25 26 26 26 26 26 27 27 26 26 26 26 26 25 24 24 24 24 24 24 25 25 26 27 27 28 28 28 28 29 29 30 31 32 33 33 34 34 35 37 37 38 39 40 41 41 42 42 43 44 45 45 46 47 47 47 47 47 47 47 48 48 48 49 49 49 50 50 51 51
12 13 14 15 16 17 18 18 19 20 21 22 22 23 24 25 25 26 26 27 27 27 27 26 27 26 25 25 25 24 24 24 23 23 23 23 24 25 25 26 26 27 27 28 28 28 29 29 30 31 32 33 33 34 35 35 36 37 38 39 39 40 41 41 41 42 42 43 44 44 45 46 46 46 46 46 46 47 47 47 48 48 49 49 49 50 51 51
13 14 15 17 18 19 20 20 21 22 23 23 24 24 25 25 26 26 27 27 27 27 27 26 25 24 23 22 22 22 22 22 23 23 24 24 25 25 26 27 27 27 27 27 28 28 29 30 31 32 33 34 34 35 35 36 36 37 38 38 39 40 40 40 41 41 42 43 44 44 44 45 45 45 45 46 46 46 47 47 47 47 48 49 49 50 50 51
14 15 17 18 19 20 21 22 23 24 24 25 25 26 25 25 26 26 26 26 26 26 26 24 23 22 21 21 20 20 21 21 22 22 23 24 25 25 25 26 26 26 27 27 28 29 29 30 31 32 33 34 34 35 35 36 36 37 37 38 39 39 40 40 41 41 42 43 44 44 44 45 44 44 45 45 46 46 47 47 47 48 48 49 49 49 49 49
16 17 18 19 21 22 23 24 25 25 25 26 26 26 26 25 26 26 25 25 24 24 23 22 21 20 20 20 19 20 20 21 21 21 22 23 23 24 24 25 26 26 27 27 28 29 29 30 31 31 32 33 34 34 35 36 36 37 37 38 39 39 40 41 41 42 42 43 44 44 44 44 44 45 45 46 46 46 47 47 47 47 47 47 47 47 47 47
18 19 20 21 22 24 25 26 26 26 26 25 25 25 25 25 25 25 25 23 22 22 21 20 20 19 19 19 19 19 19 20 20 20 21 22 22 23 24 25 26 27 27 28 29 29 30 30 31 31 32 33 33 34 35 35 36 37 37 38 39 40 41 42 42 42 43 44 44 44 45 45 45 45 45 45 45 45 45 46 46 46 46 46 46 47 48 48
20 21 22 23 24 26 27 27 26 26 25 25 25 25 25 25 25 25 23 22 20 20 20 20 19 18 18 18 18 19 19 19 20 21 22 23 23 24 25 26 27 27 28 29 29 30 31 31 31 32 33 33 34 35 35 36 37 37 38 39 40 40 41 42 42 43 44 44 44 44 45 47 46 45 45 44 44 44 44 45 45 46 46 47 48 49 50 52
22 23 24 25 26 27 28 27 26 25 25 25 25 25 25 25 24 24 21 20 19 19 19 18 18 17 18 18 18 19 20 20 21 22 22 23 24 25 25 26 27 28 29 29 30 31 31 32 33 33 34 34 35 36 36 37 38 38 39 40 41 41 42 42 43 43 44 45 44 44 46 48 47 45 45 44 45 45 46 46 47 48 49 50 51 52 52 53
24 25 26 27 28 28 28 26 26 25 25 26 25 25 24 23 22 21 20 18 17 18 17 17 17 17 18 18 19 20 21 21 21 22 23 24 24 25 26 27 28 29 30 31 31 32 33 33 34 35 36 36 37 38 38 39 39 40 40 41 41 42 42 43 43 43 45 45 44 45 47 49 48 47 46 46 46 47 48 49 49 50 50 51 51 51 51 52
26 27 28 29 29 28 27 26 25 25 25 25 24 23 22 21 20 19 18 16 16 16 16 16 17 18 18 19 20 21 21 21 22 23 24 25 26 27 28 29 30 31 32 32 33 34 34 35 36 37 38 38 39 40 41 41 42 42 43 43 43 43 43 43 43 44 45 45 46 46 46 48 50 49 48 48 49 50 50 49 50 50 50 49 49 50 50 50
27 28 29 28 28 26 26 26 26 25 24 23 22 21 20 19 17 17 17 16 16 16 16 17 18 19 19 20 20 22 22 23 24 25 26 27 28 29 30 31 32 33 34 34 35 36 37 38 39 40 41 41 42 43 43 44 44 44 44 44 44 44 45 44 44 45 46 47 48 47 46 48 52 52 50 51 50 49 49 48 48 48 47 48 48 49 49 49
27 28 28 27 26 26 26 26 24 23 22 21 19 18 18 17 16 16 16 16 16 16 18 19 19 20 20 21 22 23 24 25 26 27 28 29 29 30 31 32 34 35 36 36 37 39 40 41 42 42 42 42 42 42 41 41 41 42 42 43 43 44 44 45 45 46 46 48 48 47 45 47 51 52 50 49 48 47 46 46 46 46 46 47 47 47 47 47
28 28 27 27 26 26 25 24 22 21 20 18 17 16 16 16 16 17 17 17 17 18 19 19 19 21 22 23 24 25 26 28 28 29 30 30 31 32 33 35 36 37 38 40 41 42 43 43 42 41 39 38 37 37 37 37 37 38 38 39 39 40 41 42 43 43 44 46 45 43 43 44 47 50 47 45 45 44 44 45 45 45 45 45 45 46 46 46
27 27 27 26 26 24 22 21 19 18 17 16 16 15 16 17 17 18 18 18 19 19 20 20 21 23 24 25 26 27 28 28 29 30 32 33 34 35 36 37 38 39 41 41 41 41 40 38 37 36 35 34 35 35 35 35 35 36 36 36 37 37 38 39 39 39 40 41 40 40 41 41 44 46 44 43 43 43 43 44 44 44 44 45 45 46 47 47
27 27 26 25 23 22 20 18 17 17 16 16 16 16 17 18 19 19 20 20 20 20 21 22 23 24 25 26 26 27 29 30 31 32 33 34 36 37 38 39 40 40 40 37 35 34 33 32 32 32 32 33 33 33 33 34 34 34 34 35 35 36 37 37 37 37 38 38 38 39 39 41 42 43 42 42 43 43 43 44 44 45 45 46 46 46 46 46
26 25 24 22 21 19 18 17 16 16 16 17 17 18 19 20 20 20 21 21 21 22 23 24 25 25 26 27 28 29 30 32 33 34 36 37 39 40 40 40 39 38 36 34 32 30 29 29 29 30 30 31 31 31 31 31 32 32 33 33 34 35 37 38 38 38 38 39 40 40 40 41 42 41 42 42 43 43 44 44 44 45 44 44 44 44 44 45
24 23 21 19 19 18 17 17 17 17 18 18 19 20 20 21 21 21 22 23 23 24 24 25 26 27 28 29 30 31 32 34 35 37 38 39 39 38 37 36 35 34 33 33 32 31 30 29 29 29 30 31 31 31 31 32 32 33 33 34 35 35 37 39 39 40 40 41 41 41 41 42 41 41 41 41 41 42 42 41 41 41 41 42 42 43 44 45
21 20 19 18 18 18 18 18 18 19 19 20 20 21 21 21 22 22 22 23 24 25 25 27 28 29 30 31 32 33 34 36 37 37 37 36 35 34 33 32 32 31 31 31 31 30 30 30 30 31 32 32 32 32 32 33 33 34 34 35 35 35 37 38 39 40 40 41 41 40 39 39 39 39 38 38 38 38 39 39 40 41 42 42 43 44 45 46
18 18 18 18 18 19 19 20 20 21 21 21 22 22 22 22 22 23 23 24 25 26 27 28 29 30 31 32 33 34 35 35 35 34 33 32 32 32 31 31 31 31 31 31 31 31 30 30 31 32 32 32 32 33 33 33 33 34 34 34 35 35 36 37 37 37 37 38 38 37 37 36 36 37 37 37 37 38 39 40 41 42 43 43 44 45 46 48
18 18 19 19 20 20 21 21 21 21 22 22 22 22 23 23 24 24 25 26 26 27 28 28 29 30 31 32 33 33 32 32 32 31 31 31 31 31 31 31 31 31 31 31 31 31 30 29 30 31 31 31 32 32 33 33 33 33 34 34 34 34 34 34 35 35 35 36 37 36 36 35 36 37 37 37 38 39 40 41 42 43 44 45 46 47 48 49
19 20 20 21 21 22 22 22 22 22 22 22 23 23 24 24 25 26 26 27 27 28 28 28 29 29 30 30 30 30 30 30 30 30 30 30 30 30 30 30 30 30 29 29 29 29 29 29 30 31 31 31 31 32 32 32 33 33 33 33 33 33 33 33 33 34 35 36 36 36 36 36 36 37 37 38 39 40 42 42 43 44 45 46 47 48 50 51
21 21 22 22 22 23 23 23 23 23 23 24 24 25 25 25 26 26 26 26 26 27 27 27 27 28 28 28 29 29 30 30 30 30 30 30 29 29 29 29 29 29 29 29 29 29 29 29 30 31 31 31 31 31 31 31 31 32 32 32 32 33 33 33 33 34 34 35 37 37 37 37 38 38 39 40 41 42 43 44 44 45 46 47 48 49 51 52
23 23 23 23 24 24 24 24 24 24 24 24 24 24 24 24 24 24 24 24 24 25 25 26 27 27 28 28 29 29 29 29 29 29 29 28 28 28 28 28 28 28 28 29 29 29 29 29 29 29 30 30 30 30 30 31 31 31 31 31 31 32 32 32 33 33 34 35 36 37 38 38 39 39 40 41 42 42 43 44 45 46 48 49 50 52 54 55
24 24 24 24 24 24 23 23 23 23 22 22 22 22 21 21 21 22 22 22 23 24 25 26 27 27 28 28 28 28 29 29 28 28 28 27 27 27 27 27 28 28 28 28 28 29 29 29 29 29 30 31 31 31 31 31 31 32 32 32 32 33 33 33 33 33 33 34 36 37 38 38 39 40 41 41 42 43 45 46 47 49 50 52 53 55 56 57
23 23 23 23 22 22 22 21 21 20 20 20 20 19 19 20 20 21 22 22 23 24 25 26 26 27 27 27 27 27 28 27 27 27 27 27 27 27 27 27 28 28 28 28 29 28 29 29 30 30 31 32 32 32 32 33 33 34 34 34 34 34 34 34 34 34 34 35 36 37 39 39 39 40 41 43 44 45 47 48 50 51 53 54 55 56 57 58
22 21 21 21 20 20 20 19 19 18 18 18 18 18 18 19 20 21 22 23 24 24 25 25 26 26 27 27 27 27 27 27 27 26 26 26 27 27 27 28 28 28 28 28 28 28 28 29 29 30 31 31 31 32 33 34 35 35 36 36 36 36 36 35 35 36 37 37 38 39 40 41 41 42 43 45 47 48 49 50 52 53 54 55 56 57 58 59
21 20 20 20 19 19 18 18 18 17 17 17 17 18 19 20 21 22 23 23 24 25 26 26 27 27 27 27 27 27 27 27 27 27 26 27 27 26 26 26 26 26 27 28 29 30 30 31 32 32 33 34 34 35 36 37 38 38 38 38 38 38 37 37 38 39 39 39 39 40 41 42 43 44 45 47 48 49 50 51 52 53 54 56 57 59 60 61
19 19 19 18 18 18 18 18 18 17 18 18 18 19 20 21 22 23 24 24 25 25 26 26 27 27 27 28 28 28 28 27 26 26 26 26 25 25 25 26 27 28 29 30 30 30 31 32 34 35 36 38 39 40 40 40 41 41 41 40 39 38 38 39 39 40 40 40 40 41 42 44 45 46 46 47 48 50 51 53 54 55 56 58 59 60 61 62
19 18 18 18 18 18 18 18 18 18 19 19 20 21 21 22 23 23 24 24 24 24 25 25 26 27 27 27 27 26 26 26 26 26 26 26 27 27 27 28 28 29 29 29 30 31 32 33 35 36 36 37 39 40 41 41 43 43 44 43 41 39 39 39 39 40 40 40 41 42 43 45 46 47 48 49 50 51 53 54 55 57 58 59 60 61 62 63
19 19 19 19 19 19 19 19 19 19 20 20 21 21 22 22 23 23 24 24 24 25 25 26 26 27 27 26 26 26 26 27 27 27 26 27 27 27 28 28 29 30 30 30 32 33 33 34 35 35 36 37 38 39 40 42 43 44 44 43 42 40 40 39 39 39 40 41 42 42 43 45 46 47 49 50 51 52 54 55 56 57 57 59 60 61 62 63
20 20 20 19 19 19 19 20 20 20 20 21 21 22 23 24 24 25 25 25 26 26 27 27 27 27 27 27 26 27 27 27 27 26 26 27 27 28 28 29 30 31 32 32 33 34 34 34 35 36 37 38 39 40 41 43 44 45 46 45 43 41 40 39 39 39 40 41 42 43 44 45 47 48 49 50 51 53 54 55 56 56 57 59 60 61 62 63
19 19 19 19 19 19 20 20 20 21 22 23 24 25 26 26 26 26 27 27 27 28 28 28 28 27 27 27 27 27 26 26 26 27 27 28 29 29 29 30 32 33 33 34 35 35 35 35 37 37 38 39 40 41 43 44 45 47 47 47 46 44 42 41 41 41 41 41 43 44 45 46 47 49 50 52 53 54 54 55 56 57 59 60 61 63 64 65
19 19 19 19 20 20 20 21 22 22 23 24 25 26 26 26 27 27 27 28 28 28 28 28 28 28 27 27 27 26 26 27 27 28 28 29 30 30 31 32 33 34 35 35 36 36 37 37 38 38 39 40 41 42 43 45 46 47 49 49 48 47 45 44 43 43 43 43 44 46 48 49 50 52 53 54 55 56 56 57 58 59 61 62 63 63 64 64
20 20 20 20 21 21 22 22 23 23 24 25 25 25 25 26 27 27 27 28 28 28 28 27 27 27 26 27 27 26 27 27 28 29 29 30 31 32 32 33 34 35 36 36 37 37 38 38 39 39 40 41 41 42 44 45 46 48 49 49 49 49 47 46 45 45 46 47 49 50 52 53 55 56 56 57 58 58 59 59 60 61 61 62 61 61 61 60
20 21 21 21 22 22 23 23 24 24 24 24 24 24 25 26 26 27 27 27 27 27 27 26 26 26 26 27 27 27 27 28 29 30 31 31 31 33 34 34 34 35 37 37 38 38 38 39 40 40 40 41 42 43 44 45 47 48 49 50 50 49 49 47 46 48 49 51 52 53 55 56 57 58 58 59 59 60 60 61 61 61 61 60 60 59 59 58
Wind_Direction
262 261 260 259 260 260 259 259 258 260 260 260 262 263 266 268 269 272 273 274 275 274 274 273 272 272 273 273 274 274 274 274 273 272 271 270 270 269 270 270 270 269 268 267 265 265 265 265 265 264 264 264 264 264 265 266 266 267 268 269 270 271 270 269 269 270 271 271 271 271 270 270 270 270 270 269 269 269 270 270 270 271 272 273 273 273 272 271
265 263 262 262 262 262 262 260 260 261 263 265 268 269 271 273 275 275 276 276 276 276 276 275 275 275 276 277 278 278 279 279 278 278 276 274 273 274 274 274 274 273 272 271 269 268 268 268 268 268 268 267 267 267 267 267 268 268 269 270 270 270 269 269 270 270 270 271 271 271 270 270 270 270 271 270 270 271 271 271 271 272 272 272 272 272 272 272
272 267 266 266 265 264 263 262 263 265 268 272 276 277 278 278 277 277 276 274 274 276 278 279 280 281 282 284 284 284 284 284 283 282 280 278 277 276 275 274 274 273 272 271 270 270 270 270 270 270 270 270 269 269 269 269 269 270 270 270 270 270 270 270 270 270 270 271 271 271 271 270 270 271 271 271 271 271 271 271 271 271 271 271 271 272 272 272
277 273 271 270 268 268 267 265 266 268 273 278 281 283 282 281 281 280 279 277 275 276 278 281 284 286 289 290 290 290 290 289 287 285 284 281 280 278 276 275 273 272 272 271 270 270 270 270 271 271 271 271 271 271 271 271 271 271 271 271 270 270 270 270 270 271 271 272 272 272 272 272 272 272 272 272 272 272 271 271 271 271 271 271 271 271 271 272
283 282 282 280 280 279 277 274 271 273 277 281 284 285 287 288 289 289 289 288 288 287 286 286 287 289 289 290 290 290 289 287 285 284 282 280 278 276 275 274 273 272 271 271 270 270 270 271 271 271 272 271 271 272 271 271 271 271 271 271 271 270 270 271 271 272 272 273 273 274 274 274 275 274 274 274 274 273 273 272 272 271 270 270 271 271 272 272
295 294 294 293 292 289 286 282 280 281 283 285 287 290 293 300 305 307 307 305 304 302 300 298 296 295 294 293 293 293 292 289 288 286 283 280 278 276 274 273 271 270 269 269 269 269 269 269 269 269 269 270 270 270 270 270 270 271 271 271 271 271 271 271 272 272 273 274 274 275 276 276 276 276 276 275 275 275 274 273 272 271 271 271 271 272 273 274
304 301 298 298 295 293 290 288 287 287 288 293 298 307 314 319 320 316 313 310 307 305 303 302 301 300 299 298 298 299 298 296 295 292 289 287 284 281 278 275 273 271 270 270 269 269 268 267 267 268 268 269 269 269 269 270 270 270 271 271 270 271 272 272 272 273 273 274 275 276 276 276 276 277 276 276 275 275 274 274 274 273 272 272 272 273 274 275
322 321 317 316 316 315 315 310 314 317 324 330 329 327 324 321 318 314 310 308 305 303 302 301 300 299 299 298 300 300 300 299 298 295 293 291 289 286 283 281 279 277 276 274 273 273 273 272 271 271 271 271 272 272 273 272 272 273 273 272 271 271 271 272 272 273 273 274 275 275 276 276 276 276 275 275 275 275 275 275 274 274 274 273 274 274 275 276
10 15 26 38 51 59 62 62 52 31 3 342 330 323 319 315 311 309 306 304 302 301 300 299 298 297 297 297 298 299 298 298 297 295 294 292 289 286 285 283 282 281 279 277 276 275 275 274 274 274 274 273 274 274 274 274 274 275 274 274 274 273 273 273 274 274 275 275 275 276 277 277 277 276 276 276 276 276 275 275 275 274 274 274 274 275 275 276
58 64 67 67 66 64 56 41 17 352 333 323 316 311 309 307 304 304 302 301 301 300 299 298 298 297 296 296 297 297 297 296 294 293 293 290 288 286 285 284 282 281 279 277 275 274 273 272 272 272 272 272 273 273 273 274 274 274 274 274 275 275 275 276 277 278 278 278 278 278 278 278 278 278 278 278 278 277 276 275 275 274 274 274 274 274 274 274
73 73 69 60 51 32 8 344 328 318 311 308 304 303 303 303 304 304 304 303 303 301 300 299 298 297 296 297 297 297 296 295 294 293 291 288 286 285 285 284 283 281 279 277 275 274 273 272 272 272 273 274 273 273 274 274 275 275 275 275 275 276 277 277 278 279 279 280 280 280 279 278 279 279 279 279 279 278 277 277 276 276 275 275 275 275 274 274
61 53 40 22 3 342 329 318 311 306 303 301 301 302 303 304 306 306 306 306 305 303 301 299 298 297 297 298 298 298 297 296 295 293 290 288 287 286 285 284 283 282 281 279 278 277 276 275 274 274 275 276 276 276 276 276 276 276 276 277 278 278 278 278 278 278 279 280 280 280 279 279 280 280 280 280 279 279 278 278 277 277 276 276 276 276 275 275
26 13 358 346 336 326 319 312 308 305 303 302 301 302 303 304 306 307 308 308 307 305 303 301 300 299 299 299 299 298 297 296 295 293 292 291 290 288 286 284 283 282 282 281 281 280 279 278 277 276 276 276 277 278 277 278 277 278 279 280 281 281 280 280 279 279 280 280 280 279 279 280 281 280 280 280 279 279 278 278 278 277 277 277 276 276 276 275
356 346 339 332 325 319 315 311 309 307 306 304 304 304 304 305 306 307 309 308 307 306 304 302 300 300 300 300 300 299 298 297 296 295 294 292 291 290 288 286 284 282 282 283 283 282 281 280 279 278 277 277 278 278 278 278 278 280 281 281 281 281 281 281 281 281 281 280 280 279 279 280 280 279 279 279 279 279 279 279 278 278 278 277 277 276 276 276
334 328 325 321 318 315 313 312 310 309 308 306 306 305 304 304 305 306 307 306 305 304 303 301 301 301 301 301 301 300 299 298 297 295 294 292 291 289 288 287 286 285 283 283 283 283 283 282 281 280 279 279 279 279 279 279 280 282 282 282 282 282 282 282 281 281 281 280 280 279 280 280 280 279 279 279 279 279 279 279 278 278 277 277 277 277 277 277
321 318 317 316 314 313 311 310 309 308 307 305 305 303 302 302 302 302 302 301 302 302 301 300 301 302 302 301 301 300 298 297 295 294 292 291 290 289 287 286 286 285 285 284 283 283 283 282 282 281 281 281 281 280 281 282 283 283 283 283 283 282 282 281 281 281 281 280 280 280 280 280 280 279 279 279 279 279 278 278 278 277 277 277 277 277 277 277
316 315 314 313 312 311 309 308 307 305 304 303 302 300 300 299 299 298 297 297 299 299 299 299 300 300 300 300 299 298 296 295 293 292 291 290 289 289 288 287 286 285 285 284 284 283 283 283 283 284 283 283 282 283 284 285 285 284 283 283 283 282 282 282 282 282 281 281 280 280 280 280 280 280 280 280 280 279 279 278 278 277 277 277 277 277 277 277
316 315 314 311 310 309 307 306 305 304 302 301 301 300 299 298 298 297 296 296 297 298 298 298 298 298 299 299 297 296 295 293 292 291 290 289 288 288 288 287 286 286 285 285 285 284 284 284 285 285 284 284 285 286 285 285 285 285 284 283 283 282 282 282 282 282 281 281 280 280 280 280 280 280 280 280 280 280 279 279 278 278 278 277 278 278 278 278
315 313 312 311 310 309 308 307 306 304 302 302 301 300 299 298 297 296 296 296 297 298 298 297 297 298 298 298 296 295 294 293 292 292 290 289 288 287 287 287 287 286 286 285 286 286 286 286 285 284 284 285 285 285 285 285 285 285 284 284 283 283 282 282 282 281 281 280 280 280 280 280 280 280 280 280 280 279 279 278 278 278 278 278 278 278 278 278
313 312 312 312 312 311 310 308 307 305 304 303 301 300 299 299 298 298 298 298 299 299 298 298 298 299 299 298 297 296 295 294 292 291 290 289 287 287 288 288 288 288 288 288 288 288 288 287 286 286 285 285 285 285 285 285 285 285 284 284 284 283 282 282 282 281 280 280 280 280 280 280 280 280 280 279 279 279 278 278 278 278 278 278 277 277 277 277
312 312 313 314 313 312 311 309 308 307 307 306 303 302 301 301 300 300 300 301 301 300 299 300 301 302 301 299 298 297 295 293 292 290 290 289 289 289 290 289 290 290 291 291 291 290 290 289 288 287 287 287 286 286 286 286 285 285 285 284 284 283 283 282 282 281 281 280 280 280 279 279 280 279 279 279 278 278 278 278 278 278 277 277 277 277 277 277
313 314 314 314 313 312 312 311 310 310 309 308 306 305 305 304 303 302 303 303 303 302 302 305 305 305 303 301 301 298 296 294 293 292 291 291 292 293 293 293 293 293 293 293 293 292 291 290 290 289 288 288 287 287 287 286 286 285 285 284 284 283 283 282 282 281 281 280 280 280 280 279 279 278 278 278 278 278 279 278 278 278 277 277 277 277 277 277
314 315 315 315 315 315 315 314 313 312 311 310 310 309 308 308 307 307 308 307 306 305 307 308 308 307 305 303 302 299 297 296 295 295 294 295 295 295 295 296 295 295 295 295 294 294 293 292 292 291 290 289 289 288 287 287 286 286 285 284 284 283 282 282 282 281 281 280 281 281 281 279 279 279 279 279 279 279 279 279 279 278 278 277 277 277 277 277
315 316 317 317 317 318 317 316 315 314 313 313 313 312 312 312 311 311 311 310 309 309 310 310 309 308 306 304 302 301 299 298 298 298 298 298 298 298 298 298 298 297 297 296 296 295 295 294 293 292 292 291 290 289 288 288 287 286 285 284 284 283 282 282 282 282 281 281 281 282 281 279 279 280 280 281 281 281 280 280 279 279 278 278 278 278 278 278
317 318 318 319 319 320 319 317 316 316 315 315 315 314 314 314 313 313 313 313 313 312 311 309 309 308 306 305 304 303 301 301 301 301 301 301 301 300 300 299 299 298 298 297 297 296 296 295 294 293 292 291 290 290 289 288 287 287 285 285 284 284 283 283 283 282 282 281 282 282 282 281 281 281 282 282 282 281 281 280 280 280 280 279 279 279 279 279
319 319 319 320 320 321 319 318 317 316 316 316 315 315 315 315 313 313 314 315 315 313 310 308 308 308 307 306 306 305 305 305 304 304 303 302 302 301 301 300 299 299 298 298 297 296 296 295 294 293 292 292 291 290 290 289 288 287 286 285 285 284 284 283 283 283 282 282 282 281 282 283 282 282 282 282 282 281 281 282 282 282 282 281 281 281 280 280
319 319 319 320 321 320 318 317 316 316 316 316 315 315 316 315 315 315 315 317 316 312 309 309 309 310 309 309 309 307 306 306 305 304 304 303 302 302 301 300 299 299 298 298 297 297 296 295 294 294 293 292 292 291 290 289 288 287 286 286 285 284 283 283 283 282 282 282 282 281 283 284 283 282 282 282 282 282 283 283 283 283 283 283 282 282 281 280
318 318 319 320 320 319 318 317 316 316 316 316 316 317 317 317 319 319 319 319 318 314 312 313 312 311 311 310 309 307 306 306 305 305 304 303 303 302 301 301 300 300 299 298 298 297 296 296 295 295 294 293 292 291 290 289 288 287 286 285 285 284 284 283 283 283 283 282 282 283 284 284 283 282 283 284 284 284 285 285 284 284 283 283 282 281 281 280
318 319 319 320 319 319 317 316 317 317 317 318 319 320 320 321 324 323 322 319 317 316 315 314 314 312 312 311 309 308 306 306 305 304 304 303 303 302 302 301 300 300 299 299 298 298 298 297 297 296 295 293 292 291 290 289 288 288 287 287 286 285 285 284 284 284 284 283 284 286 285 285 284 284 285 286 286 287 286 286 285 284 283 283 282 282 282 281
319 319 320 320 319 319 318 318 318 319 320 320 322 323 324 324 325 323 321 318 316 316 315 314 314 313 312 311 310 308 308 307 306 305 305 304 303 303 303 303 303 303 302 302 301 301 300 299 299 298 297 296 295 294 293 293 292 292 291 290 289 288 287 287 287 287 286 286 287 288 287 286 286 286 287 288 288 287 287 286 285 284 284 284 283 283 283 283
320 320 320 320 320 320 320 320 320 320 321 323 324 326 325 324 324 322 320 318 317 317 315 314 314 313 312 311 310 309 308 308 307 307 307 306 306 305 305 304 304 303 303 303 303 302 302 301 301 300 300 299 298 297 297 296 296 295 294 293 292 292 290 289 289 289 288 288 288 288 287 287 286 287 288 288 288 287 286 286 285 285 285 285 285 285 285 284
321 321 321 321 321 321 322 322 323 324 325 326 327 327 325 323 323 321 319 318 317 315 314 313 312 312 311 311 310 309 309 308 308 307 307 306 305 304 303 303 302 302 303 303 303 304 304 304 303 302 301 301 300 300 299 299 298 297 296 296 295 294 293 292 292 291 290 290 289 288 288 287 287 289 290 289 288 288 287 287 287 287 286 286 286 285 285 284
322 322 323 323 324 325 325 327 328 329 329 329 328 325 324 322 321 320 318 317 315 314 313 312 312 312 311 311 310 310 309 309 308 308 307 306 306 306 306 307 308 308 309 310 310 310 310 308 307 305 304 303 303 302 301 300 300 299 298 298 297 296 295 294 294 293 292 292 291 291 290 290 290 291 291 290 289 288 288 288 288 287 287 286 285 285 284 283
325 325 326 328 329 330 330 331 331 330 330 328 326 324 322 321 320 318 317 315 315 314 314 313 313 312 312 312 312 311 310 310 309 309 309 309 310 311 312 313 314 314 315 315 315 315 315 313 311 309 308 307 307 305 304 303 302 301 300 299 298 297 297 296 295 294 293 292 292 292 292 292 292 291 291 290 290 290 289 289 288 287 286 285 284 284 284 283
329 330 332 333 334 333 333 332 330 328 327 325 323 322 321 320 319 318 317 316 316 315 315 315 314 314 314 313 313 312 311 311 311 311 313 314 315 316 316 317 317 317 317 317 316 317 318 316 314 312 311 310 309 308 306 305 304 302 301 300 299 298 297 296 295 295 294 293 293 293 293 293 293 292 292 291 291 290 289 288 287 287 287 287 287 287 287 287
335 335 336 336 335 333 331 328 326 325 323 322 321 321 321 321 320 319 318 318 317 317 316 316 315 315 315 314 313 313 313 313 314 316 317 318 319 319 319 319 319 319 318 318 317 317 318 318 316 314 314 313 311 309 308 306 305 304 302 301 300 299 298 297 297 296 296 295 295 295 295 295 294 293 292 292 291 290 290 289 290 291 291 292 292 292 291 291
340 337 335 333 331 329 327 325 324 323 323 322 323 323 323 322 321 320 319 318 318 317 317 316 315 314 314 314 314 315 316 317 318 320 321 321 321 321 321 321 321 321 321 321 320 319 320 320 318 316 316 314 312 311 310 308 307 306 306 304 303 302 301 301 300 299 298 297 296 296 296 297 297 296 295 295 295 294 295 295 295 295 295 295 295 294 294 293
337 334 332 330 328 327 326 325 324 324 324 324 324 324 323 322 321 320 319 319 318 317 317 316 316 316 316 317 317 318 319 320 322 323 323 323 324 325 325 325 325 325 324 324 323 323 322 322 321 319 318 318 317 317 316 314 313 312 311 310 309 308 307 308 307 306 304 303 301 300 300 301 301 301 301 300 299 299 299 298 298 297 297 296 296 295 294 294
334 332 331 329 327 326 326 325 324 325 324 324 324 323 322 322 321 321 321 320 320 320 320 320 320 320 320 321 322 322 323 324 325 326 327 328 329 329 329 328 328 328 328 327 326 326 326 326 326 326 325 325 324 323 322 321 319 318 317 317 316 315 314 314 314 314 312 310 308 306 305 305 305 305 304 303 303 302 301 301 300 299 299 298 297 296 296 295
332 330 328 327 326 325 325 324 325 325 325 325 325 325 325 325 325 325 325 325 324 324 324 324 325 325 325 326 326 326 327 329 330 331 331 332 332 332 331 331 331 331 331 331 331 331 331 331 332 333 332 330 329 327 325 325 324 322 321 320 319 319 319 318 317 317 315 314 312 310 309 308 308 308 307 306 305 304 303 303 302 301 301 300 299 298 297 297
329 328 328 328 327 328 328 328 329 329 330 331 331 331 331 331 330 330 330 330 330 329 329 329 329 329 330 330 330 331 331 332 334 334 334 334 334 334 335 335 336 336 336 337 337 338 338 338 337 336 336 334 334 333 331 330 330 328 326 325 324 324 323 321 319 318 317 315 314 313 311 310 309 309 308 307 306 305 305 304 303 302 301 300 299 299 298 298
333 334 334 334 334 335 335 336 337 338 338 339 339 339 338 337 337 336 336 335 335 334 334 334 334 333 333 333 333 334 335 335 336 337 337 338 338 339 340 341 342 342 342 343 343 344 345 346 346 344 343 343 341 340 338 337 336 335 334 332 331 329 327 325 322 321 319 317 315 314 312 311 311 310 309 308 307 306 305 304 303 302 301 301 300 299 299 298
344 344 344 344 344 345 346 346 347 348 348 348 348 347 346 345 344 343 342 341 340 339 338 337 337 337 336 336 337 338 338 339 341 341 342 343 344 345 347 348 349 351 353 354 357 360 1 2 1 357 354 352 349 347 344 341 340 339 336 334 331 329 327 325 323 321 320 318 317 316 314 313 312 311 310 309 307 306 305 304 304 303 302 302 301 300 299 299
351 352 353 354 355 356 357 358 359 359 358 357 356 354 353 352 350 348 346 345 343 342 342 341 340 340 340 341 342 343 344 345 346 347 349 350 353 357 360 4 8 11 14 15 15 16 14 13 11 8 5 2 359 355 351 345 342 340 337 334 331 329 327 325 323 322 321 319 318 317 315 314 313 312 310 309 308 307 306 306 305 304 303 303 302 301 301 301
357 358 359 0 2 3 5 6 6 6 5 4 2 1 358 356 353 350 349 348 347 347 347 346 347 347 348 349 350 351 353 355 357 1 6 10 16 21 25 27 28 28 26 23 21 19 16 13 11 8 6 3 360 356 352 347 343 340 338 336 334 330 327 325 323 322 321 320 319 317 315 314 313 312 311 311 310 309 308 307 306 305 305 304 303 303 302 302
8 10 11 13 16 16 16 16 15 14 12 9 6 3 0 358 356 356 357 357 358 358 358 359 0 1 3 4 5 7 10 14 19 24 29 33 36 36 35 34 31 28 25 21 18 16 13 11 9 6 3 360 357 354 350 346 343 340 339 337 335 332 329 326 324 323 321 319 317 316 315 314 314 314 313 312 310 309 308 308 307 306 306 305 304 303 302 302
22 24 26 27 28 27 26 23 20 17 14 11 9 7 6 7 8 10 12 12 14 14 15 18 19 19 21 22 24 27 30 34 38 40 41 39 37 34 31 28 25 22 19 15 13 11 9 7 5 3 0 358 355 352 349 346 343 341 339 338 336 334 331 328 326 324 322 320 318 318 317 317 316 315 313 312 311 310 309 308 307 306 306 305 304 303 303 303
31 33 33 32 31 29 26 23 21 18 17 17 17 18 20 21 22 23 24 25 27 28 29 32 33 33 34 35 38 40 42 43 42 40 37 33 29 26 23 20 18 16 13 10 8 7 4 2 1 359 357 355 353 351 349 346 343 341 340 340 338 337 334 332 330 328 326 324 322 322 321 319 317 316 315 314 313 312 311 310 309 308 307 307 306 306 306 305
36 36 34 32 29 27 26 25 24 23 24 25 27 27 28 28 29 30 31 32 34 35 36 38 39 40 41 42 43 43 42 39 36 32 29 26 22 20 17 14 13 11 8 6 4 2 360 358 357 355 353 352 351 350 348 345 343 342 341 340 340 339 338 336 335 333 330 328 326 325 324 322 321 320 319 318 316 315 314 313 312 311 310 310 309 309 308 307
36 35 33 31 31 29 29 29 28 29 30 31 31 31 31 32 33 34 34 35 36 37 39 40 41 41 41 40 39 37 34 31 28 25 22 20 18 15 13 11 9 7 5 3 1 359 357 355 354 352 350 349 349 348 346 345 343 342 341 341 340 340 340 340 339 336 333 331 330 328 327 326 325 324 322 320 319 317 316 315 314 313 313 312 311 310 310 309
36 34 32 31 32 31 31 31 31 31 33 33 33 34 34 35 36 36 36 36 36 37 38 39 38 37 36 34 33 30 27 25 23 21 20 18 16 15 13 11 9 6 4 2 359 357 355 353 351 350 348 346 346 346 345 344 343 343 342 341 341 340 341 342 341 338 335 334 333 331 330 329 327 325 324 322 320 319 318 317 317 316 315 314 314 313 313 313
34 33 31 31 33 33 32 32 32 33 34 35 35 36 37 37 37 37 37 36 36 36 36 35 34 33 31 30 29 27 26 25 25 24 23 21 20 18 16 14 12 9 7 4 1 358 356 353 350 348 346 345 345 345 344 343 343 343 343 342 342 341 341 343 342 339 336 335 334 333 331 329 328 326 324 323 322 321 321 320 319 319 318 318 318 318 317 317